| time (UTC) | temp C | wind direction | speed KPH | gust KPH | rain 1hr cm | rain 24hr cm | rain mn cm | humidity % | barometer mb |
| 20260507022854 | 12 | 360 | 8.0 | 12.9 | 0.00 | 0.00 | 0.00 | 61 | |
| 20260507022329 | 12 | 360 | 9.7 | 12.9 | 0.00 | 0.00 | 0.00 | 60 | |
| 20260507021827 | 12 | 360 | 9.7 | 12.9 | 0.00 | 0.00 | 0.00 | 60 | |
| 20260507021346 | 12 | 360 | 9.7 | 12.9 | 0.00 | 0.00 | 0.00 | 59 | |
| 20260507020857 | 12 | 360 | 9.7 | 12.9 | 0.00 | 0.00 | 0.00 | 59 | |
| 20260507020353 | 12 | 360 | 8.0 | 12.9 | 0.00 | 0.00 | 0.00 | 59 | |
| 20260507015831 | 13 | 360 | 8.0 | 12.9 | 0.00 | 0.00 | 0.00 | 58 | |
| 20260507015407 | 13 | 360 | 8.0 | 12.9 | 0.00 | 0.00 | 0.00 | 57 | |
| 20260507014843 | 13 | 360 | 9.7 | 12.9 | 0.00 | 0.00 | 0.00 | 56 | |
| 20260507014400 | 13 | 360 | 8.0 | 14.5 | 0.00 | 0.00 | 0.00 | 55 | |
| 20260507013838 | 14 | 360 | 8.0 | 14.5 | 0.00 | 0.00 | 0.00 | 55 | |
| 20260507013339 | 14 | 360 | 9.7 | 14.5 | 0.00 | 0.00 | 0.00 | 54 | |
| 20260507012837 | 15 | 360 | 8.0 | 14.5 | 0.00 | 0.00 | 0.00 | 53 | |
| 20260507012354 | 15 | 360 | 9.7 | 17.7 | 0.00 | 0.00 | 0.00 | 53 | |
| 20260507011830 | 15 | 360 | 9.7 | 17.7 | 0.00 | 0.00 | 0.00 | 52 | |
| 20260507011327 | 15 | 360 | 8.0 | 17.7 | 0.00 | 0.00 | 0.00 | 52 | |
| 20260507010846 | 15 | 360 | 11.3 | 17.7 | 0.00 | 0.00 | 0.00 | 51 | |
| 20260507010343 | 16 | 360 | 11.3 | 24.1 | 0.00 | 0.00 | 0.00 | 51 | |
| 20260507005900 | 16 | 65 | 14.5 | 24.1 | 0.00 | 0.00 | 0.00 | 50 | |
| 20260507005335 | 16 | 360 | 14.5 | 22.5 | 0.00 | 0.00 | 0.00 | 50 | |
| 20260507004832 | 16 | 360 | 14.5 | 20.9 | 0.00 | 0.00 | 0.00 | 50 | |
| 20260507004330 | 16 | 360 | 14.5 | 19.3 | 0.00 | 0.00 | 0.00 | 49 | |
| 20260507003850 | 16 | 14 | 12.9 | 20.9 | 0.00 | 0.00 | 0.00 | 49 | |
| 20260507003346 | 16 | 70 | 14.5 | 20.9 | 0.00 | 0.00 | 0.00 | 49 | |
| 20260507002843 | 17 | 360 | 12.9 | 25.7 | 0.00 | 0.00 | 0.00 | 48 | |
| 20260507002340 | 17 | 360 | 17.7 | 25.7 | 0.00 | 0.00 | 0.00 | 48 | |
| 20260507001837 | 17 | 360 | 14.5 | 24.1 | 0.00 | 0.00 | 0.00 | 48 | |
| 20260507001334 | 17 | 360 | 14.5 | 24.1 | 0.00 | 0.00 | 0.00 | 48 | |
| 20260507000831 | 17 | 360 | 17.7 | 24.1 | 0.00 | 0.00 | 0.00 | 48 | |
| 20260507000335 | 17 | 360 | 14.5 | 20.9 | 0.00 | 0.00 | 0.00 | 47 | |
| 20260506235830 | 17 | 17 | 12.9 | 20.9 | 0.00 | 0.00 | 0.00 | 47 | |
| 20260506235347 | 17 | 18 | 16.1 | 24.1 | 0.00 | 0.00 | 0.00 | 47 | |
| 20260506234843 | 17 | 69 | 14.5 | 24.1 | 0.00 | 0.00 | 0.00 | 47 | |
| 20260506234342 | 17 | 360 | 8.0 | 19.3 | 0.00 | 0.00 | 0.00 | 48 | |
| 20260506233900 | 17 | 42 | 12.9 | 19.3 | 0.00 | 0.00 | 0.00 | 48 | |
| 20260506233336 | 17 | 29 | 9.7 | 19.3 | 0.00 | 0.00 | 0.00 | 48 | |
| 20260506232834 | 17 | 360 | 8.0 | 19.3 | 0.00 | 0.00 | 0.00 | 48 | |
| 20260506232331 | 17 | 27 | 8.0 | 19.3 | 0.00 | 0.00 | 0.00 | 48 | |
| 20260506231828 | 17 | 40 | 12.9 | 25.7 | 0.00 | 0.00 | 0.00 | 48 | |
| 20260506231345 | 17 | 18 | 14.5 | 25.7 | 0.00 | 0.00 | 0.00 | 47 | |
| 20260506230905 | 17 | 65 | 9.7 | 24.1 | 0.00 | 0.00 | 0.00 | 48 | |
| 20260506230341 | 17 | 355 | 16.1 | 24.1 | 0.00 | 0.00 | 0.00 | 48 | |
| 20260506225839 | 17 | 27 | 14.5 | 24.1 | 0.00 | 0.00 | 0.00 | 48 | |
| 20260506225335 | 17 | 14 | 12.9 | 20.9 | 0.00 | 0.00 | 0.00 | 48 | |
| 20260506224830 | 17 | 360 | 12.9 | 20.9 | 0.00 | 0.00 | 0.00 | 48 | |
| 20260506224347 | 17 | 24 | 11.3 | 24.1 | 0.00 | 0.00 | 0.00 | 49 | |
| 20260506223844 | 17 | 360 | 16.1 | 24.1 | 0.00 | 0.00 | 0.00 | 48 | |
| 20260506223345 | 17 | 48 | 14.5 | 22.5 | 0.00 | 0.00 | 0.00 | 49 | |
| 20260506222843 | 17 | 32 | 12.9 | 24.1 | 0.00 | 0.00 | 0.00 | 48 | |
| 20260506222339 | 17 | 49 | 14.5 | 24.1 | 0.00 | 0.00 | 0.00 | 49 | |
| 20260506221836 | 17 | 360 | 16.1 | 24.1 | 0.00 | 0.00 | 0.00 | 48 | |
| 20260506221333 | 17 | 38 | 4.8 | 22.5 | 0.00 | 0.00 | 0.00 | 48 | |
| 20260506220830 | 17 | 360 | 16.1 | 24.1 | 0.00 | 0.00 | 0.00 | 48 | |
| 20260506220408 | 17 | 360 | 12.9 | 24.1 | 0.00 | 0.00 | 0.00 | 49 | |
| 20260506215845 | 17 | 360 | 11.3 | 24.1 | 0.00 | 0.00 | 0.00 | 48 | |
| 20260506215341 | 18 | 23 | 16.1 | 25.7 | 0.00 | 0.00 | 0.00 | 49 | |
| 20260506214838 | 17 | 360 | 8.0 | 30.6 | 0.00 | 0.00 | 0.00 | 49 | |
| 20260506214336 | 17 | 360 | 17.7 | 27.4 | 0.00 | 0.00 | 0.00 | 49 | |
| 20260506213832 | 17 | 360 | 11.3 | 27.4 | 0.00 | 0.00 | 0.00 | 49 | |
| 20260506213329 | 17 | 360 | 12.9 | 24.1 | 0.00 | 0.00 | 0.00 | 49 | |
| 20260506212848 | 17 | 360 | 19.3 | 30.6 | 0.00 | 0.00 | 0.00 | 49 | |
| 20260506212344 | 17 | 360 | 19.3 | 30.6 | 0.00 | 0.00 | 0.00 | 50 | |
| 20260506211842 | 17 | 360 | 20.9 | 30.6 | 0.00 | 0.00 | 0.00 | 50 | |
| 20260506211343 | 17 | 360 | 17.7 | 30.6 | 0.00 | 0.00 | 0.00 | 50 | |
| 20260506210840 | 17 | 26 | 17.7 | 30.6 | 0.00 | 0.00 | 0.00 | 50 | |
| 20260506210337 | 17 | 360 | 17.7 | 29.0 | 0.00 | 0.00 | 0.00 | 50 | |
| 20260506205836 | 17 | 360 | 16.1 | 33.8 | 0.00 | 0.00 | 0.00 | 50 | |
| 20260506205352 | 17 | 360 | 17.7 | 29.0 | 0.00 | 0.00 | 0.00 | 50 | |
| 20260506204829 | 17 | 20 | 16.1 | 29.0 | 0.00 | 0.00 | 0.00 | 50 | |
| 20260506204346 | 17 | 360 | 19.3 | 30.6 | 0.00 | 0.00 | 0.00 | 50 | |
| 20260506203844 | 17 | 360 | 14.5 | 32.2 | 0.00 | 0.00 | 0.00 | 50 | |
| 20260506203338 | 17 | 9 | 11.3 | 24.1 | 0.00 | 0.00 | 0.00 | 50 | |
| 20260506202837 | 17 | 5 | 17.7 | 25.7 | 0.00 | 0.00 | 0.00 | 50 | |
| 20260506202333 | 17 | 24 | 14.5 | 29.0 | 0.00 | 0.00 | 0.00 | 51 | |
| 20260506201831 | 17 | 360 | 22.5 | 29.0 | 0.00 | 0.00 | 0.00 | 51 | |
| 20260506201328 | 17 | 60 | 14.5 | 32.2 | 0.00 | 0.00 | 0.00 | 51 | |
| 20260506200845 | 17 | 27 | 20.9 | 32.2 | 0.00 | 0.00 | 0.00 | 52 | |
| 20260506200343 | 17 | 360 | 20.9 | 32.2 | 0.00 | 0.00 | 0.00 | 51 | |
| 20260506195901 | 17 | 360 | 19.3 | 32.2 | 0.00 | 0.00 | 0.00 | 51 | |
| 20260506195336 | 16 | 30 | 14.5 | 27.4 | 0.00 | 0.00 | 0.00 | 51 | |
| 20260506194838 | 17 | 360 | 17.7 | 25.7 | 0.00 | 0.00 | 0.00 | 51 | |
| 20260506194356 | 17 | 360 | 16.1 | 29.0 | 0.00 | 0.00 | 0.00 | 51 | |
| 20260506193852 | 17 | 360 | 14.5 | 29.0 | 0.00 | 0.00 | 0.00 | 51 | |
| 20260506193328 | 17 | 360 | 19.3 | 29.0 | 0.00 | 0.00 | 0.00 | 52 | |
| 20260506192908 | 16 | 29 | 19.3 | 29.0 | 0.00 | 0.00 | 0.00 | 51 | |
| 20260506192342 | 17 | 28 | 22.5 | 29.0 | 0.00 | 0.00 | 0.00 | 51 | |
| 20260506191839 | 17 | 360 | 11.3 | 27.4 | 0.00 | 0.00 | 0.00 | 52 | |
| 20260506191337 | 17 | 24 | 17.7 | 27.4 | 0.00 | 0.00 | 0.00 | 52 | |
| 20260506190854 | 17 | 38 | 16.1 | 27.4 | 0.00 | 0.00 | 0.00 | 51 | |
| 20260506190331 | 17 | 360 | 19.3 | 27.4 | 0.00 | 0.00 | 0.00 | 51 | |
| 20260506185830 | 17 | 360 | 14.5 | 33.8 | 0.00 | 0.00 | 0.00 | 52 | |
| 20260506185347 | 17 | 360 | 19.3 | 33.8 | 0.00 | 0.00 | 0.00 | 52 | |
| 20260506184844 | 16 | 360 | 14.5 | 30.6 | 0.00 | 0.00 | 0.00 | 52 | |
| 20260506184342 | 16 | 55 | 16.1 | 30.6 | 0.00 | 0.00 | 0.00 | 54 | |
| 20260506183840 | 16 | 360 | 20.9 | 30.6 | 0.00 | 0.00 | 0.00 | 53 | |
| 20260506183338 | 16 | 360 | 17.7 | 27.4 | 0.00 | 0.00 | 0.00 | 52 | |
| 20260506182856 | 16 | 360 | 16.1 | 32.2 | 0.00 | 0.00 | 0.00 | 53 | |
| 20260506182352 | 16 | 360 | 12.9 | 27.4 | 0.00 | 0.00 | 0.00 | 53 | |
| 20260506181828 | 16 | 360 | 11.3 | 25.7 | 0.00 | 0.00 | 0.00 | 54 | |
| 20260506181406 | 16 | 360 | 19.3 | 29.0 | 0.00 | 0.00 | 0.00 | 53 | |
| 20260506180843 | 16 | 360 | 17.7 | 29.0 | 0.00 | 0.00 | 0.00 | 55 | |
| 20260506180401 | 16 | 360 | 17.7 | 29.0 | 0.00 | 0.00 | 0.00 | 54 | |
| 20260506175837 | 16 | 360 | 16.1 | 29.0 | 0.00 | 0.00 | 0.00 | 55 | |
| 20260506175334 | 16 | 360 | 19.3 | 30.6 | 0.00 | 0.00 | 0.00 | 55 | |
| 20260506174834 | 15 | 360 | 12.9 | 25.7 | 0.00 | 0.00 | 0.00 | 56 | |
| 20260506174332 | 15 | 360 | 14.5 | 29.0 | 0.00 | 0.00 | 0.00 | 56 | |
| 20260506173829 | 15 | 360 | 20.9 | 33.8 | 0.00 | 0.00 | 0.00 | 56 | |
| 20260506173408 | 15 | 360 | 17.7 | 33.8 | 0.00 | 0.00 | 0.00 | 56 | |
| 20260506172844 | 15 | 360 | 16.1 | 32.2 | 0.00 | 0.00 | 0.00 | 56 | |
| 20260506172341 | 15 | 360 | 22.5 | 32.2 | 0.00 | 0.00 | 0.00 | 56 | |
| 20260506171838 | 15 | 360 | 20.9 | 32.2 | 0.00 | 0.00 | 0.00 | 57 | |
| 20260506171335 | 15 | 360 | 19.3 | 32.2 | 0.00 | 0.00 | 0.00 | 58 | |
| 20260506170831 | 15 | 360 | 20.9 | 32.2 | 0.00 | 0.00 | 0.00 | 57 | |
| 20260506170341 | 15 | 360 | 20.9 | 35.4 | 0.00 | 0.00 | 0.00 | 58 | |
| 20260506165841 | 14 | 360 | 25.7 | 35.4 | 0.00 | 0.00 | 0.00 | 59 | |
| 20260506165357 | 14 | 360 | 24.1 | 35.4 | 0.00 | 0.00 | 0.00 | 59 | |
| 20260506164853 | 14 | 360 | 17.7 | 30.6 | 0.00 | 0.00 | 0.00 | 59 | |
| 20260506164351 | 15 | 360 | 17.7 | 33.8 | 0.00 | 0.00 | 0.00 | 59 | |
| 20260506163828 | 14 | 360 | 24.1 | 33.8 | 0.00 | 0.00 | 0.00 | 61 | |
| 20260506163345 | 13 | 360 | 20.9 | 30.6 | 0.00 | 0.00 | 0.00 | 61 | |
| 20260506162843 | 13 | 360 | 20.9 | 32.2 | 0.00 | 0.00 | 0.00 | 61 | |
| 20260506162340 | 13 | 360 | 17.7 | 29.0 | 0.00 | 0.00 | 0.00 | 62 | |
| 20260506161858 | 13 | 360 | 19.3 | 33.8 | 0.00 | 0.00 | 0.00 | 61 | |
| 20260506161334 | 13 | 360 | 25.7 | 38.6 | 0.00 | 0.00 | 0.00 | 61 | |
| 20260506160833 | 13 | 360 | 24.1 | 38.6 | 0.00 | 0.00 | 0.00 | 61 | |
| 20260506160334 | 13 | 360 | 19.3 | 35.4 | 0.00 | 0.00 | 0.00 | 62 | |
| 20260506155833 | 13 | 360 | 19.3 | 40.2 | 0.00 | 0.00 | 0.00 | 63 | |
| 20260506155329 | 12 | 360 | 27.4 | 40.2 | 0.00 | 0.00 | 0.00 | 64 | |
| 20260506154847 | 12 | 360 | 22.5 | 33.8 | 0.00 | 0.00 | 0.00 | 64 | |
| 20260506154345 | 12 | 360 | 19.3 | 33.8 | 0.00 | 0.00 | 0.00 | 64 | |
| 20260506153842 | 12 | 360 | 16.1 | 32.2 | 0.00 | 0.00 | 0.00 | 65 | |
| 20260506153339 | 12 | 360 | 22.5 | 32.2 | 0.00 | 0.00 | 0.00 | 66 | |
| 20260506152837 | 12 | 360 | 17.7 | 38.6 | 0.00 | 0.00 | 0.00 | 68 | |
| 20260506152334 | 11 | 360 | 24.1 | 38.6 | 0.00 | 0.00 | 0.00 | 68 | |
| 20260506151832 | 11 | 360 | 19.3 | 30.6 | 0.00 | 0.00 | 0.00 | 69 | |
| 20260506151329 | 11 | 360 | 22.5 | 32.2 | 0.00 | 0.00 | 0.00 | 70 | |
| 20260506150846 | 11 | 360 | 24.1 | 33.8 | 0.00 | 0.00 | 0.00 | 70 | |
| 20260506150344 | 11 | 360 | 24.1 | 32.2 | 0.00 | 0.00 | 0.00 | 70 | |
| 20260506145841 | 11 | 360 | 24.1 | 30.6 | 0.00 | 0.00 | 0.00 | 70 | |
| 20260506145358 | 11 | 360 | 22.5 | 33.8 | 0.00 | 0.00 | 0.00 | 71 | |
| 20260506144835 | 11 | 360 | 24.1 | 35.4 | 0.00 | 0.00 | 0.00 | 72 | |
| 20260506144353 | 11 | 360 | 24.1 | 33.8 | 0.00 | 0.00 | 0.00 | 73 | |
| 20260506143834 | 10 | 360 | 20.9 | 35.4 | 0.00 | 0.00 | 0.00 | 73 | |
| 20260506143331 | 10 | 360 | 22.5 | 35.4 | 0.00 | 0.00 | 0.00 | 73 | |
| 20260506142830 | 10 | 360 | 25.7 | 35.4 | 0.00 | 0.00 | 0.00 | 73 | |
| 20260506142346 | 10 | 360 | 24.1 | 33.8 | 0.00 | 0.00 | 0.00 | 73 | |
| 20260506141844 | 10 | 360 | 25.7 | 33.8 | 0.00 | 0.00 | 0.00 | 74 | |
| 20260506141341 | 10 | 360 | 24.1 | 32.2 | 0.00 | 0.00 | 0.00 | 74 | |
| 20260506140839 | 10 | 360 | 20.9 | 32.2 | 0.00 | 0.00 | 0.00 | 74 | |
| 20260506140336 | 10 | 360 | 20.9 | 37.0 | 0.00 | 0.00 | 0.00 | 74 | |
| 20260506135835 | 10 | 360 | 25.7 | 37.0 | 0.00 | 0.00 | 0.00 | 75 | |
| 20260506135331 | 10 | 360 | 17.7 | 33.8 | 0.00 | 0.00 | 0.00 | 75 | |
| 20260506134849 | 10 | 360 | 16.1 | 35.4 | 0.00 | 0.00 | 0.00 | 75 | |
| 20260506134346 | 10 | 360 | 24.1 | 35.4 | 0.00 | 0.00 | 0.00 | 75 | |
| 20260506133843 | 10 | 360 | 19.3 | 32.2 | 0.00 | 0.00 | 0.00 | 75 | |
| 20260506133401 | 10 | 360 | 19.3 | 29.0 | 0.00 | 0.00 | 0.00 | 75 | |
| 20260506132837 | 9 | 360 | 22.5 | 30.6 | 0.00 | 0.00 | 0.00 | 75 | |
| 20260506132334 | 9 | 360 | 20.9 | 30.6 | 0.00 | 0.00 | 0.00 | 75 | |
| 20260506131851 | 9 | 360 | 20.9 | 30.6 | 0.00 | 0.00 | 0.00 | 75 | |
| 20260506131331 | 9 | 360 | 22.5 | 30.6 | 0.00 | 0.00 | 0.00 | 76 | |
| 20260506130849 | 9 | 360 | 17.7 | 30.6 | 0.00 | 0.00 | 0.00 | 76 | |
| 20260506130346 | 9 | 360 | 19.3 | 30.6 | 0.00 | 0.00 | 0.00 | 75 | |
| 20260506125844 | 9 | 360 | 16.1 | 27.4 | 0.00 | 0.00 | 0.00 | 75 | |
| 20260506125340 | 9 | 360 | 17.7 | 27.4 | 0.00 | 0.00 | 0.00 | 75 | |
| 20260506124837 | 9 | 360 | 16.1 | 27.4 | 0.00 | 0.00 | 0.00 | 75 | |
| 20260506124334 | 9 | 360 | 14.5 | 24.1 | 0.00 | 0.00 | 0.00 | 75 | |
| 20260506123831 | 9 | 360 | 14.5 | 25.7 | 0.00 | 0.00 | 0.00 | 75 | |
| 20260506123329 | 9 | 360 | 19.3 | 25.7 | 0.00 | 0.00 | 0.00 | 75 | |
| 20260506122848 | 9 | 360 | 14.5 | 22.5 | 0.00 | 0.00 | 0.00 | 75 | |
| 20260506122405 | 8 | 360 | 14.5 | 22.5 | 0.00 | 0.00 | 0.00 | 75 | |
| 20260506121841 | 8 | 360 | 14.5 | 20.9 | 0.00 | 0.00 | 0.00 | 75 | |
| 20260506121338 | 8 | 360 | 11.3 | 19.3 | 0.00 | 0.00 | 0.00 | 75 | |
| 20260506120836 | 8 | 360 | 11.3 | 22.5 | 0.00 | 0.00 | 0.00 | 75 | |
| 20260506120332 | 8 | 360 | 16.1 | 22.5 | 0.00 | 0.00 | 0.00 | 75 | |
| 20260506115911 | 8 | 360 | 12.9 | 20.9 | 0.00 | 0.00 | 0.00 | 75 | |
| 20260506115347 | 8 | 360 | 12.9 | 19.3 | 0.00 | 0.00 | 0.00 | 75 | |
| 20260506114828 | 8 | 360 | 11.3 | 19.3 | 0.00 | 0.00 | 0.00 | 75 | |
| 20260506114403 | 8 | 360 | 9.7 | 16.1 | 0.00 | 0.00 | 0.00 | 76 | |
| 20260506113843 | 8 | 360 | 9.7 | 16.1 | 0.00 | 0.00 | 0.00 | 76 | |
| 20260506113400 | 8 | 360 | 8.0 | 17.7 | 0.00 | 0.00 | 0.00 | 76 | |
| 20260506112837 | 8 | 360 | 11.3 | 17.7 | 0.00 | 0.00 | 0.00 | 76 | |
| 20260506112333 | 8 | 360 | 8.0 | 14.5 | 0.00 | 0.00 | 0.00 | 76 | |
| 20260506111852 | 8 | 360 | 11.3 | 17.7 | 0.00 | 0.00 | 0.00 | 76 | |
| 20260506111328 | 8 | 360 | 9.7 | 17.7 | 0.00 | 0.00 | 0.00 | 76 | |
| 20260506110845 | 8 | 360 | 6.4 | 16.1 | 0.00 | 0.00 | 0.00 | 76 | |
| 20260506110342 | 8 | 360 | 11.3 | 16.1 | 0.00 | 0.00 | 0.00 | 76 | |
| 20260506105841 | 8 | 360 | 9.7 | 16.1 | 0.00 | 0.00 | 0.00 | 76 | |
| 20260506105337 | 8 | 360 | 9.7 | 17.7 | 0.00 | 0.00 | 0.00 | 76 | |
| 20260506104835 | 8 | 360 | 11.3 | 25.7 | 0.00 | 0.00 | 0.00 | 76 | |
| 20260506104332 | 8 | 360 | 16.1 | 25.7 | 0.00 | 0.00 | 0.00 | 76 | |
| 20260506103830 | 8 | 360 | 16.1 | 25.7 | 0.00 | 0.00 | 0.00 | 76 | |
| 20260506103346 | 9 | 360 | 19.3 | 24.1 | 0.00 | 0.00 | 0.00 | 75 | |
| 20260506102843 | 9 | 360 | 14.5 | 29.0 | 0.00 | 0.00 | 0.00 | 75 | |
| 20260506102339 | 9 | 360 | 16.1 | 29.0 | 0.00 | 0.00 | 0.00 | 75 | |
| 20260506101837 | 9 | 360 | 14.5 | 20.9 | 0.00 | 0.00 | 0.00 | 75 | |
| 20260506101338 | 9 | 360 | 14.5 | 20.9 | 0.00 | 0.00 | 0.00 | 75 | |
| 20260506100836 | 9 | 360 | 11.3 | 29.0 | 0.00 | 0.00 | 0.00 | 75 | |
| 20260506100333 | 9 | 360 | 19.3 | 29.0 | 0.00 | 0.00 | 0.00 | 75 | |
| 20260506095832 | 9 | 360 | 14.5 | 22.5 | 0.00 | 0.00 | 0.00 | 74 | |
| 20260506095348 | 9 | 360 | 14.5 | 20.9 | 0.00 | 0.00 | 0.00 | 74 | |
| 20260506094845 | 9 | 360 | 14.5 | 22.5 | 0.00 | 0.00 | 0.00 | 74 | |
| 20260506094342 | 9 | 360 | 11.3 | 19.3 | 0.00 | 0.00 | 0.00 | 74 | |
| 20260506093841 | 9 | 360 | 9.7 | 19.3 | 0.00 | 0.00 | 0.00 | 73 | |
| 20260506093359 | 9 | 360 | 9.7 | 19.3 | 0.00 | 0.00 | 0.00 | 73 | |
| 20260506092836 | 9 | 360 | 11.3 | 22.5 | 0.00 | 0.00 | 0.00 | 73 | |
| 20260506092332 | 9 | 360 | 14.5 | 22.5 | 0.00 | 0.00 | 0.00 | 73 | |
| 20260506091829 | 9 | 360 | 9.7 | 17.7 | 0.00 | 0.00 | 0.00 | 72 | |
| 20260506091327 | 9 | 360 | 11.3 | 19.3 | 0.00 | 0.00 | 0.00 | 72 | |
| 20260506090845 | 9 | 360 | 12.9 | 19.3 | 0.00 | 0.00 | 0.00 | 72 | |
| 20260506090343 | 9 | 360 | 9.7 | 16.1 | 0.00 | 0.00 | 0.00 | 72 | |
| 20260506085901 | 9 | 360 | 8.0 | 14.5 | 0.00 | 0.00 | 0.00 | 72 | |
| 20260506085337 | 9 | 360 | 9.7 | 16.1 | 0.00 | 0.00 | 0.00 | 71 | |
| 20260506084839 | 9 | 360 | 11.3 | 16.1 | 0.00 | 0.00 | 0.00 | 71 | |
| 20260506084335 | 9 | 360 | 8.0 | 17.7 | 0.00 | 0.00 | 0.00 | 71 | |
| 20260506083832 | 9 | 360 | 11.3 | 20.9 | 0.00 | 0.00 | 0.00 | 71 | |
| 20260506083329 | 9 | 360 | 14.5 | 20.9 | 0.00 | 0.00 | 0.00 | 70 | |
| 20260506082847 | 9 | 360 | 12.9 | 20.9 | 0.00 | 0.00 | 0.00 | 70 | |
| 20260506082344 | 9 | 360 | 9.7 | 20.9 | 0.00 | 0.00 | 0.00 | 70 | |
| 20260506081841 | 9 | 360 | 11.3 | 22.5 | 0.00 | 0.00 | 0.00 | 70 | |
| 20260506081338 | 9 | 360 | 16.1 | 22.5 | 0.00 | 0.00 | 0.00 | 69 | |
| 20260506080835 | 9 | 360 | 16.1 | 24.1 | 0.00 | 0.00 | 0.00 | 69 | |
| 20260506080332 | 9 | 360 | 12.9 | 24.1 | 0.00 | 0.00 | 0.00 | 69 | |
| 20260506073341 | 9 | 360 | 14.5 | 22.5 | 0.00 | 0.00 | 0.00 | 70 | |
| 20260506072839 | 9 | 360 | 12.9 | 22.5 | 0.00 | 0.00 | 0.00 | 70 | |
| 20260506072335 | 9 | 360 | 11.3 | 19.3 | 0.00 | 0.00 | 0.00 | 70 | |
| 20260506071832 | 9 | 360 | 9.7 | 17.7 | 0.00 | 0.00 | 0.00 | 70 | |
| 20260506071350 | 9 | 360 | 12.9 | 17.7 | 0.00 | 0.00 | 0.00 | 70 | |
| 20260506070848 | 9 | 360 | 9.7 | 16.1 | 0.00 | 0.00 | 0.00 | 70 | |
| 20260506070345 | 9 | 360 | 9.7 | 20.9 | 0.00 | 0.00 | 0.00 | 69 | |
| 20260506062345 | 9 | 360 | 17.7 | 25.7 | 0.00 | 0.00 | 0.00 | 69 | |
| 20260506061842 | 9 | 360 | 12.9 | 27.4 | 0.00 | 0.00 | 0.00 | 70 | |
| 20260506061340 | 9 | 360 | 17.7 | 27.4 | 0.00 | 0.00 | 0.00 | 70 | |
| 20260506060842 | 9 | 360 | 19.3 | 25.7 | 0.00 | 0.00 | 0.00 | 70 | |
| 20260506060338 | 9 | 360 | 17.7 | 27.4 | 0.00 | 0.00 | 0.00 | 71 | |
| 20260506051327 | 9 | 360 | 19.3 | 32.2 | 0.00 | 0.00 | 0.00 | 74 | |
| 20260506050906 | 9 | 360 | 22.5 | 32.2 | 0.00 | 0.00 | 0.00 | 74 | |
| 20260506050334 | 9 | 360 | 22.5 | 32.2 | 0.00 | 0.00 | 0.00 | 74 | |
| 20260506044845 | 9 | 360 | 17.7 | 33.8 | 0.00 | 0.00 | 0.00 | 75 | |
| 20260506044343 | 9 | 360 | 24.1 | 37.0 | 0.00 | 0.00 | 0.00 | 75 | |
| 20260506043840 | 9 | 360 | 25.7 | 37.0 | 0.00 | 0.00 | 0.00 | 75 | |
| 20260506043339 | 9 | 360 | 20.9 | 29.0 | 0.00 | 0.00 | 0.00 | 75 | |
| 20260506042840 | 9 | 360 | 19.3 | 25.7 | 0.00 | 0.00 | 0.00 | 75 | |
| 20260506042336 | 9 | 360 | 17.7 | 35.4 | 0.00 | 0.00 | 0.00 | 75 | |
| 20260506041835 | 9 | 360 | 22.5 | 38.6 | 0.00 | 0.00 | 0.00 | 75 | |
| 20260506041332 | 9 | 360 | 20.9 | 38.6 | 0.00 | 0.00 | 0.00 | 75 | |
| 20260506040910 | 10 | 360 | 20.9 | 35.4 | 0.00 | 0.00 | 0.00 | 75 | |
| 20260506040407 | 10 | 360 | 25.7 | 35.4 | 0.00 | 0.00 | 0.00 | 75 | |
| 20260506035844 | 10 | 360 | 22.5 | 35.4 | 0.00 | 0.00 | 0.00 | 75 | |
| 20260506035401 | 10 | 360 | 17.7 | 27.4 | 0.00 | 0.00 | 0.00 | 75 | |
| 20260506034837 | 10 | 360 | 20.9 | 35.4 | 0.00 | 0.00 | 0.00 | 75 | |
| 20260506034355 | 10 | 360 | 25.7 | 40.2 | 0.00 | 0.00 | 0.00 | 75 | |
| 20260506033851 | 10 | 360 | 27.4 | 40.2 | 0.00 | 0.00 | 0.00 | 75 | |
| 20260506033408 | 10 | 360 | 20.9 | 35.4 | 0.00 | 0.00 | 0.00 | 75 | |
| 20260506032845 | 10 | 360 | 24.1 | 33.8 | 0.00 | 0.00 | 0.00 | 75 | |
| 20260506032342 | 10 | 360 | 14.5 | 30.6 | 0.00 | 0.00 | 0.00 | 76 | |
| 20260506031839 | 10 | 360 | 20.9 | 30.6 | 0.00 | 0.00 | 0.00 | 76 | |
| 20260506031356 | 10 | 360 | 14.5 | 24.1 | 0.00 | 0.00 | 0.00 | 76 | |
| 20260506030832 | 10 | 360 | 12.9 | 27.4 | 0.00 | 0.00 | 0.00 | 76 | |
| 20260506030349 | 10 | 360 | 16.1 | 27.4 | 0.00 | 0.00 | 0.00 | 76 | |
| 20260506025847 | 9 | 360 | 17.7 | 24.1 | 0.00 | 0.00 | 0.00 | 76 | |
| 20260506025343 | 9 | 360 | 12.9 | 24.1 | 0.00 | 0.00 | 0.00 | 76 | |
| 20260506024840 | 9 | 360 | 17.7 | 24.1 | 0.00 | 0.00 | 0.00 | 76 | |
| 20260506024338 | 9 | 360 | 16.1 | 27.4 | 0.00 | 0.00 | 0.00 | 76 | |
| 20260506023835 | 9 | 360 | 17.7 | 24.1 | 0.00 | 0.00 | 0.00 | 76 | |
| 20260506023336 | 9 | 360 | 12.9 | 29.0 | 0.00 | 0.00 | 0.00 | 76 |